sat.trackr.live / text

‹ back to catalog

STARLINK-36228

NORAD 67096 · 2025-298X

PAYLOAD ACTIVE UNKNOWN

§ Identity

Operator
Country
US
Launch date
2025-12-14
Launch site
AFWTR
Launch vehicle
Mass (kg)
RCS (m²)

Purposes: comms

External: N2YO · Heavens-Above · Gunter

§ Orbital elements

Epoch: 2026-05-25T02:43:12.145728Z

Period
96.11 min
Inclination
70.0010°
Eccentricity
0.0003777
Mean motion
14.98331525 rev/d
Perigee alt
569.4 km
Apogee alt
574.7 km
Semi-major
6,950.2 km
B*
3.0810e-4
RAAN
181.8084°
Arg perigee
269.7429°
Mean anomaly
90.3298°
Rev number
2,466

§ Raw data

STARLINK-362281 67096U 25298X   26145.11333502  .00003585  00000+0  30810-3 0  99952 67096  70.0010 181.8084 0003777 269.7429  90.3298 14.98331525 24661

JSON: /api/v1/satellites/67096 · /tle

For live sub-satellite position, see the globe view (requires WebGL).

§ Visibility from observer

Set your observer location to see the next 7 days of passes ≥ 10°. The values pass through the URL so the page stays shareable.

No JS? Fill the form by hand. The geolocation button needs JavaScript.